SCP
0 0 0 0 0 0 0 0 0 0 0 -0 -0 -0 -0 0 0 0 0 0 0 0 0 0 0 0 0 0 0 0 0 0 0 -0 -0 -0 0 0 0 0 0 0 0
0 0 0 0 0 0 0 0 0 0 0 -0 -0 -0 -0 -0 0 0 0 0 0 0 0 0 0 0 0 0 0 0 0 0 0 0 -0 -0 0 0 0 0 0 0 0
0 0 0 0 0 0 0 0 0 0 0 -0 -0 -0 0 0 0 0 0 0 0 0 0 0 0 0 0 0 0 0 0 0 0 0 0 0 0 0 0 0 0 0 0
0 0 0 0 0 0 0 0 0 0 -0 -0 -0 0 0 0 0 0 0 0 0 0 0 0 0 0 0 0 0 0 0 0 0 0 0 0 0 0 0 0 0 0 0
0 0 0 0 0 0 0 0 0 0 -0 -0 -0 0 0 0 0 0 0 0 0 0 0 0 0 0 0 0 0 0 0 0 0 0 0 0 -0 -0 -0 0 0 0 0
0 0 0 0 0 0 0 0 0 0 -0 -0 0 0 0 0 0 0 0 0 0 0 0 0 0 0 0 0 0 0 0 0 0 0 0 0 -0 -0 -0 0 0 0 0
0 0 0 0 0 0 0 0 0 0 -0 0 0 0 0 0 0 0 0 0 0 0 0 0 0 0 0 0 0 0 0 0 -0 0 0 0 -0 -0 -0 -0 0 0 0
0 0 0 0 0 0 0 0 0 0 0 0 0 0 0 0 0 0 0 0 0 0 0 0 0 0 0 0 0 0 0 0 0 0 0 -0 -0 -0 -0 -0 0 0 0
0 0 0 0 0 0 0 0 0 0 0 0 0 0 0 0 0 0 0 0 0 0 0 0 0 0 0 0 0 0 0 0 0 0 0 0 0 -0 -0 -0 -0 0 0
0 0 0 0 0 0 0 0 0 0 0 0 0 0 0 0 0 0 0 0 0 0 0 0 0 0 0 0 0 0 0 0 0 0 0 0 0 -0 0 -0 -0 0 0
0 0 0 0 0 0 0 0 0 0 0 0 0 0 0 0 0 0 0 0 0 0 0 0 0 0 0 0 0 0 0 0 0 0 0 0 0 -0 -0 0 -0 0 0
0 0 0 0 0 0 0 0 0 0 0 0 0 0 0 0 0 0 0 0 0 0 0 0 0 0 0 0 0 0 0 0 0 0 0 0 0 -0 -0 0 -0 -0 0
0 0 0 0 0 0 0 0 0 0 0 0 0 0 0 0 0 0 0 0 0 0 0 0 0 0 0 0 0 0 0 0 0 0 0 0 0 -0 -0 0 -0 -0 0
0 0 0 0 0 0 0 0 0 0 0 0 0 0 0 0 0 0 0 0 0 0 0 0 0 0 0 0 0 0 0 0 0 0 0 0 0 -0 -0 0 -0 -0 0
0 0 0 0 0 0 0 0 0 0 0 0 0 0 0 0 0 0 0 0 0 0 0 0 0 0 0 0 0 0 0 0 -0 -0 -0 -0 0 -0 0 0 -0 0 0
0 0 0 0 0 0 0 0 0 0 0 0 0 0 0 0 0 0 0 0 0 0 0 0 0 0 0 0 0 0 0 0 -0 -0 -0 -0 0 -0 0 0 0 0 0
0 0 0 0 0 0 0 0 0 0 0 0 0 0 0 0 0 0 0 0 0 0 0 0 0 0 0 0 0 0 0 0 -0 -0 -0 -0 -0 -0 0 0 0 0 0
0 0 0 0 0 0 0 0 0 0 0 0 0 0 0 0 0 0 0 0 0 0 0 0 0 0 0 0 0 0 0 -0 0 -0 -0 -0 -0 -0 0 0 0 0 0
0 0 0 0 0 0 0 0 0 0 0 0 0 0 0 0 0 0 0 0 0 0 0 0 0 0 0 0 0 0 0 -0 0 -0 0 -0 -0 0 0 0 0 0 0
0 0 0 0 0 0 0 0 0 0 0 0 0 0 0 0 0 0 0 0 0 0 0 0 0 0 0 0 0 0 -0 -0 -0 -0 0 0 -0 0 0 0 0 0 0
0 0 0 0 0 0 0 0 0 0 0 0 0 0 0 0 0 0 0 0 0 0 -0 -0 0 0 0 0 0 0 -0 0 0 -0 0 0 0 0 0 0 0 0 0
0 0 0 0 0 0 0 0 0 0 0 0 0 0 0 0 0 0 0 0 0 0 -0 -0 0 0 0 0 -0 -0 0 0 0 0 0 0 0 0 0 0 0 0 0
0 0 0 0 0 0 0 0 0 0 0 0 0 0 0 0 0 0 0 0 0 -0 -0 -0 0 0 0 0 -0 -0 0 0 0 0 0 0 0 0 -0 0 0 0 0
0 0 0 0 0 0 0 0 0 0 0 0 0 0 0 0 0 0 0 0 0 -0 -0 -0 0 0 0 0 -0 -0 0 0 0 0 0 0 0 0 0 0 0 0 0
0 0 0 0 0 0 0 0 0 0 0 0 0 0 0 0 0 0 0 -0 -0 -0 -0 -0 -0 0 0 -0 -0 -0 0 0 0 0 0 0 0 0 0 0 0 0 0
0 0 0 0 0 0 0 0 0 0 0 0 0 0 0 0 0 0 0 -0 -0 -0 -0 0 0 -0 -0 -0 -0 -0 0 0 0 0 0 0 0 0 0 0 0 0 0
Wind_Speed_500mb
57 51 42 32 26 22 21 25 33 41 48 54 63 67 68 69 72 75 76 79 82 83 90 94 94 89 85 86 80 74 77 84 78 83 98 109 86 85 109 111 111 109 109
65 60 48 37 29 24 21 25 35 43 48 54 60 67 72 76 78 81 83 85 85 88 92 95 96 91 88 81 82 76 77 79 68 59 58 58 92 62 110 113 117 114 117
76 66 54 41 30 23 21 26 34 41 48 55 61 66 72 77 83 85 87 89 92 94 96 95 93 88 82 83 82 75 75 82 73 65 42 28 30 40 70 103 120 116 118
80 70 59 47 33 22 21 25 34 44 51 57 62 65 72 79 82 88 91 94 96 98 102 100 92 90 90 86 82 80 65 83 87 67 60 67 78 35 43 45 99 113 112
86 72 62 47 31 20 20 25 37 46 52 55 60 65 70 75 84 89 95 97 100 98 103 104 96 90 93 85 77 77 73 69 85 77 65 63 70 77 54 74 69 101 112
86 71 58 42 26 19 20 27 39 45 50 55 59 64 71 77 82 90 97 99 102 103 102 104 103 89 89 79 68 73 81 80 66 79 77 73 62 57 74 71 108 71 99
84 73 61 42 28 21 21 29 39 46 51 56 60 65 69 75 84 89 95 99 104 106 106 103 108 92 82 76 84 84 84 87 87 73 79 77 82 84 62 82 86 99 72
85 75 60 41 28 21 23 28 38 46 52 58 63 66 70 77 83 86 89 94 99 105 105 106 105 98 83 86 75 72 71 84 89 65 86 79 87 79 77 82 97 96 61
87 75 56 41 27 23 23 29 39 46 54 60 64 69 73 77 82 85 89 92 96 104 108 105 103 96 89 80 80 84 81 81 83 78 72 88 79 77 79 95 87 76 63
82 69 55 38 26 22 24 32 40 50 56 62 67 72 76 81 85 90 90 93 98 105 108 108 101 92 88 84 77 74 81 84 89 80 63 85 82 74 66 82 92 99 103
86 71 52 36 26 23 28 36 47 54 59 64 69 74 79 83 85 89 92 93 100 105 107 105 100 93 88 79 75 86 82 81 91 88 72 74 82 78 80 71 84 101 89
81 64 50 36 29 26 30 40 49 53 58 65 70 76 80 84 88 90 92 96 102 103 102 102 97 92 84 80 78 74 70 73 85 80 76 70 80 76 83 74 82 95 70
75 63 50 39 31 29 34 42 47 52 58 65 72 75 80 86 91 92 94 97 101 101 100 94 89 84 79 76 72 71 67 68 75 89 78 49 77 81 76 70 87 103 129
78 65 52 39 31 29 35 41 45 52 59 65 72 77 83 87 90 92 96 99 98 98 94 88 82 77 76 71 71 67 75 66 67 85 86 61 57 77 75 76 77 74 98
82 69 50 37 29 29 33 37 44 51 59 66 72 79 83 86 90 92 96 98 96 94 87 81 78 74 71 66 60 59 61 69 73 78 90 83 57 69 76 69 82 76 60
80 60 45 35 26 27 30 37 43 50 59 67 73 78 83 87 89 92 95 97 95 93 87 83 80 83 75 65 60 60 67 71 74 76 81 89 79 71 73 69 70 66 81
79 59 45 30 23 22 28 36 44 53 59 67 72 77 80 86 89 91 93 94 96 95 87 80 74 70 69 65 64 63 66 71 74 79 79 87 82 78 78 67 64 65 86
72 54 40 28 20 19 27 35 44 52 58 64 70 75 79 85 87 89 92 95 93 92 87 80 70 71 68 66 67 66 66 71 74 81 76 86 90 90 83 63 54 37 121
62 48 35 22 16 18 24 33 42 50 56 63 68 72 76 82 85 86 92 92 92 92 84 75 72 69 69 67 69 66 65 70 73 68 71 77 89 93 81 64 55 47 94
53 44 32 21 14 15 23 33 42 49 55 63 68 71 72 76 81 84 88 89 86 86 81 77 69 66 72 61 62 51 56 66 66 66 67 70 84 88 76 61 58 44 85
52 41 29 18 11 13 21 30 40 47 54 60 65 68 68 71 77 80 82 87 85 86 83 80 76 79 67 64 57 58 59 59 63 58 55 63 68 76 72 66 62 46 67
52 39 28 17 11 13 21 30 40 48 52 57 62 64 65 69 74 79 83 83 82 84 83 78 78 82 74 71 50 53 53 41 54 59 54 48 35 48 60 63 59 36 53
50 39 28 18 11 14 22 31 40 48 53 56 59 62 64 66 71 76 80 83 81 80 78 78 82 90 78 90 59 47 51 40 38 66 56 45 29 43 65 58 53 31 64
51 40 29 19 13 14 22 32 41 48 52 55 58 63 65 68 68 73 71 75 75 80 78 79 86 82 89 82 83 80 66 41 31 39 53 47 53 56 54 52 48 39 79
53 41 30 20 14 15 22 30 38 44 48 50 54 58 61 66 69 66 73 67 63 60 67 75 80 89 85 82 75 73 73 56 41 28 30 47 57 59 54 56 50 37 83
52 42 32 23 16 15 21 28 34 41 44 47 51 55 60 63 66 71 70 65 62 58 53 58 68 78 64 73 75 73 55 41 19 25 21 31 41 44 47 55 47 58 91
Wind_Direction_500mb
211 209 211 220 244 276 305 327 339 341 342 342 339 336 338 336 333 330 332 334 334 332 332 330 325 318 307 292 283 283 282 283 284 292 280 272 272 255 244 241 243 239 232
205 206 209 219 240 272 305 325 337 340 341 341 339 338 337 335 331 331 333 333 333 334 332 331 325 316 306 296 275 277 281 279 280 286 295 288 266 270 236 242 236 235 234
205 205 209 220 242 270 303 321 335 339 339 338 336 335 330 326 328 330 330 329 330 331 330 330 325 314 303 292 279 271 272 275 276 275 266 278 252 334 227 230 232 236 231
212 211 209 217 235 265 298 317 335 337 337 336 335 332 328 326 327 325 326 329 329 327 328 328 324 311 303 292 283 267 269 270 270 272 265 263 255 274 296 234 229 237 234
212 208 209 218 231 256 292 318 330 335 333 335 332 328 325 324 323 325 325 325 323 325 326 325 322 310 300 293 281 267 260 267 265 264 262 270 262 255 254 271 298 217 226
209 209 211 218 234 267 297 317 326 330 333 331 328 327 325 323 324 325 323 324 323 324 325 323 318 310 298 293 285 270 257 255 261 259 259 259 259 260 243 252 254 247 216
205 203 207 217 237 268 297 315 323 329 330 328 326 324 323 324 324 324 324 324 323 322 325 320 315 310 299 293 282 277 259 256 258 263 255 261 265 261 255 249 260 279 204
206 205 209 220 241 271 295 311 320 326 325 324 322 322 323 324 323 324 323 321 320 321 322 318 313 309 301 292 287 282 266 255 253 268 253 261 269 278 258 253 253 263 202
206 205 209 222 242 266 290 308 317 320 321 321 322 323 323 323 322 322 323 322 321 320 319 315 312 306 302 296 279 270 268 255 260 255 261 256 264 272 256 249 244 250 271
206 206 212 223 242 266 289 307 313 319 322 321 322 324 325 326 325 325 325 323 322 320 318 315 311 304 296 292 289 282 271 266 253 249 266 254 261 265 261 256 249 245 253
206 206 213 222 240 265 292 306 315 320 321 322 324 326 326 326 327 325 325 325 322 319 316 314 310 299 292 289 283 280 274 267 254 248 254 263 263 263 254 251 243 248 249
210 211 215 225 243 267 291 308 315 319 322 324 326 327 328 328 327 328 328 325 322 320 315 311 305 297 292 288 285 284 277 268 255 256 252 262 261 265 266 263 257 253 270
214 211 213 226 240 270 297 308 315 320 323 326 327 329 330 329 329 330 328 327 324 318 315 310 305 299 294 289 283 281 277 269 255 250 250 264 263 269 268 262 248 249 250
214 211 214 225 244 277 296 308 317 323 326 329 331 331 331 330 330 331 330 327 325 321 316 311 307 301 296 289 285 273 273 266 263 251 247 250 262 262 262 263 239 258 245
207 208 211 223 247 277 295 310 320 326 329 331 332 332 331 330 333 332 331 330 327 324 319 314 311 307 301 294 288 286 279 267 259 258 251 249 249 263 264 266 245 252 218
203 200 211 225 252 279 300 314 323 327 330 330 333 333 333 333 335 334 333 331 330 328 323 320 309 306 304 297 284 277 275 274 266 258 255 252 251 258 269 270 256 276 272
202 201 211 223 249 279 303 317 324 329 331 332 332 332 335 334 336 336 335 336 336 331 323 318 314 311 311 301 289 280 273 269 265 260 257 255 253 259 265 268 251 266 219
198 198 203 218 244 282 308 320 327 331 332 331 331 333 336 335 336 337 338 342 336 331 328 323 320 316 317 307 296 285 274 269 265 259 254 255 249 251 260 270 259 264 198
193 193 197 210 247 289 312 324 329 331 332 331 332 336 337 337 337 341 344 341 339 336 332 327 322 320 321 317 312 291 274 268 263 255 248 253 249 250 256 265 268 270 198
185 186 191 208 244 292 317 327 331 333 334 334 335 337 340 340 340 347 344 343 344 338 337 333 331 327 321 320 320 321 279 269 269 264 249 249 248 251 255 262 266 280 198
182 186 191 205 249 296 320 328 332 336 337 335 337 339 343 343 347 347 347 347 345 344 341 340 337 329 329 326 325 340 305 268 269 266 262 261 260 245 251 256 263 256 205
182 185 189 206 246 300 320 329 334 337 338 338 339 341 346 350 350 350 351 351 349 346 340 336 329 333 340 328 329 335 347 290 268 266 263 254 259 256 259 257 264 239 203
183 185 194 208 243 294 318 329 335 337 340 340 341 345 353 354 355 356 355 355 354 349 341 336 332 336 333 335 338 333 325 306 309 265 259 247 249 266 261 255 260 231 199
186 189 196 209 240 289 319 328 335 338 341 342 346 352 353 356 359 359 3 360 357 352 342 339 336 336 333 337 341 328 320 305 283 269 256 252 244 255 258 254 250 242 199
189 192 198 211 243 288 315 326 335 338 341 345 352 354 356 358 358 4 6 5 3 352 344 342 344 338 336 337 329 325 319 317 301 265 267 248 245 251 253 252 244 245 201
191 195 202 212 237 280 310 326 338 340 342 348 355 356 359 360 359 359 3 16 16 5 356 352 354 344 341 338 339 335 334 321 276 232 266 260 251 252 247 253 246 223 201
Wind_Speed_850mb
57 51 42 32 26 22 21 25 33 41 48 54 63 67 68 69 72 75 76 79 82 83 90 94 94 89 85 86 80 74 77 84 78 83 98 109 86 85 109 111 111 109 109
65 60 48 37 29 24 21 25 35 43 48 54 60 67 72 76 78 81 83 85 85 88 92 95 96 91 88 81 82 76 77 79 68 59 58 58 92 62 110 113 117 114 117
76 66 54 41 30 23 21 26 34 41 48 55 61 66 72 77 83 85 87 89 92 94 96 95 93 88 82 83 82 75 75 82 73 65 42 28 30 40 70 103 120 116 118
80 70 59 47 33 22 21 25 34 44 51 57 62 65 72 79 82 88 91 94 96 98 102 100 92 90 90 86 82 80 65 83 87 67 60 67 78 35 43 45 99 113 112
86 72 62 47 31 20 20 25 37 46 52 55 60 65 70 75 84 89 95 97 100 98 103 104 96 90 93 85 77 77 73 69 85 77 65 63 70 77 54 74 69 101 112
86 71 58 42 26 19 20 27 39 45 50 55 59 64 71 77 82 90 97 99 102 103 102 104 103 89 89 79 68 73 81 80 66 79 77 73 62 57 74 71 108 71 99
84 73 61 42 28 21 21 29 39 46 51 56 60 65 69 75 84 89 95 99 104 106 106 103 108 92 82 76 84 84 84 87 87 73 79 77 82 84 62 82 86 99 72
85 75 60 41 28 21 23 28 38 46 52 58 63 66 70 77 83 86 89 94 99 105 105 106 105 98 83 86 75 72 71 84 89 65 86 79 87 79 77 82 97 96 61
87 75 56 41 27 23 23 29 39 46 54 60 64 69 73 77 82 85 89 92 96 104 108 105 103 96 89 80 80 84 81 81 83 78 72 88 79 77 79 95 87 76 63
82 69 55 38 26 22 24 32 40 50 56 62 67 72 76 81 85 90 90 93 98 105 108 108 101 92 88 84 77 74 81 84 89 80 63 85 82 74 66 82 92 99 103
86 71 52 36 26 23 28 36 47 54 59 64 69 74 79 83 85 89 92 93 100 105 107 105 100 93 88 79 75 86 82 81 91 88 72 74 82 78 80 71 84 101 89
81 64 50 36 29 26 30 40 49 53 58 65 70 76 80 84 88 90 92 96 102 103 102 102 97 92 84 80 78 74 70 73 85 80 76 70 80 76 83 74 82 95 70
75 63 50 39 31 29 34 42 47 52 58 65 72 75 80 86 91 92 94 97 101 101 100 94 89 84 79 76 72 71 67 68 75 89 78 49 77 81 76 70 87 103 129
78 65 52 39 31 29 35 41 45 52 59 65 72 77 83 87 90 92 96 99 98 98 94 88 82 77 76 71 71 67 75 66 67 85 86 61 57 77 75 76 77 74 98
82 69 50 37 29 29 33 37 44 51 59 66 72 79 83 86 90 92 96 98 96 94 87 81 78 74 71 66 60 59 61 69 73 78 90 83 57 69 76 69 82 76 60
80 60 45 35 26 27 30 37 43 50 59 67 73 78 83 87 89 92 95 97 95 93 87 83 80 83 75 65 60 60 67 71 74 76 81 89 79 71 73 69 70 66 81
79 59 45 30 23 22 28 36 44 53 59 67 72 77 80 86 89 91 93 94 96 95 87 80 74 70 69 65 64 63 66 71 74 79 79 87 82 78 78 67 64 65 86
72 54 40 28 20 19 27 35 44 52 58 64 70 75 79 85 87 89 92 95 93 92 87 80 70 71 68 66 67 66 66 71 74 81 76 86 90 90 83 63 54 37 121
62 48 35 22 16 18 24 33 42 50 56 63 68 72 76 82 85 86 92 92 92 92 84 75 72 69 69 67 69 66 65 70 73 68 71 77 89 93 81 64 55 47 94
53 44 32 21 14 15 23 33 42 49 55 63 68 71 72 76 81 84 88 89 86 86 81 77 69 66 72 61 62 51 56 66 66 66 67 70 84 88 76 61 58 44 85
52 41 29 18 11 13 21 30 40 47 54 60 65 68 68 71 77 80 82 87 85 86 83 80 76 79 67 64 57 58 59 59 63 58 55 63 68 76 72 66 62 46 67
52 39 28 17 11 13 21 30 40 48 52 57 62 64 65 69 74 79 83 83 82 84 83 78 78 82 74 71 50 53 53 41 54 59 54 48 35 48 60 63 59 36 53
50 39 28 18 11 14 22 31 40 48 53 56 59 62 64 66 71 76 80 83 81 80 78 78 82 90 78 90 59 47 51 40 38 66 56 45 29 43 65 58 53 31 64
51 40 29 19 13 14 22 32 41 48 52 55 58 63 65 68 68 73 71 75 75 80 78 79 86 82 89 82 83 80 66 41 31 39 53 47 53 56 54 52 48 39 79
53 41 30 20 14 15 22 30 38 44 48 50 54 58 61 66 69 66 73 67 63 60 67 75 80 89 85 82 75 73 73 56 41 28 30 47 57 59 54 56 50 37 83
52 42 32 23 16 15 21 28 34 41 44 47 51 55 60 63 66 71 70 65 62 58 53 58 68 78 64 73 75 73 55 41 19 25 21 31 41 44 47 55 47 58 91
Wind_Direction_850mb
211 209 211 220 244 276 305 327 339 341 342 342 339 336 338 336 333 330 332 334 334 332 332 330 325 318 307 292 283 283 282 283 284 292 280 272 272 255 244 241 243 239 232
205 206 209 219 240 272 305 325 337 340 341 341 339 338 337 335 331 331 333 333 333 334 332 331 325 316 306 296 275 277 281 279 280 286 295 288 266 270 236 242 236 235 234
205 205 209 220 242 270 303 321 335 339 339 338 336 335 330 326 328 330 330 329 330 331 330 330 325 314 303 292 279 271 272 275 276 275 266 278 252 334 227 230 232 236 231
212 211 209 217 235 265 298 317 335 337 337 336 335 332 328 326 327 325 326 329 329 327 328 328 324 311 303 292 283 267 269 270 270 272 265 263 255 274 296 234 229 237 234
212 208 209 218 231 256 292 318 330 335 333 335 332 328 325 324 323 325 325 325 323 325 326 325 322 310 300 293 281 267 260 267 265 264 262 270 262 255 254 271 298 217 226
209 209 211 218 234 267 297 317 326 330 333 331 328 327 325 323 324 325 323 324 323 324 325 323 318 310 298 293 285 270 257 255 261 259 259 259 259 260 243 252 254 247 216
205 203 207 217 237 268 297 315 323 329 330 328 326 324 323 324 324 324 324 324 323 322 325 320 315 310 299 293 282 277 259 256 258 263 255 261 265 261 255 249 260 279 204
206 205 209 220 241 271 295 311 320 326 325 324 322 322 323 324 323 324 323 321 320 321 322 318 313 309 301 292 287 282 266 255 253 268 253 261 269 278 258 253 253 263 202
206 205 209 222 242 266 290 308 317 320 321 321 322 323 323 323 322 322 323 322 321 320 319 315 312 306 302 296 279 270 268 255 260 255 261 256 264 272 256 249 244 250 271
206 206 212 223 242 266 289 307 313 319 322 321 322 324 325 326 325 325 325 323 322 320 318 315 311 304 296 292 289 282 271 266 253 249 266 254 261 265 261 256 249 245 253
206 206 213 222 240 265 292 306 315 320 321 322 324 326 326 326 327 325 325 325 322 319 316 314 310 299 292 289 283 280 274 267 254 248 254 263 263 263 254 251 243 248 249
210 211 215 225 243 267 291 308 315 319 322 324 326 327 328 328 327 328 328 325 322 320 315 311 305 297 292 288 285 284 277 268 255 256 252 262 261 265 266 263 257 253 270
214 211 213 226 240 270 297 308 315 320 323 326 327 329 330 329 329 330 328 327 324 318 315 310 305 299 294 289 283 281 277 269 255 250 250 264 263 269 268 262 248 249 250
214 211 214 225 244 277 296 308 317 323 326 329 331 331 331 330 330 331 330 327 325 321 316 311 307 301 296 289 285 273 273 266 263 251 247 250 262 262 262 263 239 258 245
207 208 211 223 247 277 295 310 320 326 329 331 332 332 331 330 333 332 331 330 327 324 319 314 311 307 301 294 288 286 279 267 259 258 251 249 249 263 264 266 245 252 218
203 200 211 225 252 279 300 314 323 327 330 330 333 333 333 333 335 334 333 331 330 328 323 320 309 306 304 297 284 277 275 274 266 258 255 252 251 258 269 270 256 276 272
202 201 211 223 249 279 303 317 324 329 331 332 332 332 335 334 336 336 335 336 336 331 323 318 314 311 311 301 289 280 273 269 265 260 257 255 253 259 265 268 251 266 219
198 198 203 218 244 282 308 320 327 331 332 331 331 333 336 335 336 337 338 342 336 331 328 323 320 316 317 307 296 285 274 269 265 259 254 255 249 251 260 270 259 264 198
193 193 197 210 247 289 312 324 329 331 332 331 332 336 337 337 337 341 344 341 339 336 332 327 322 320 321 317 312 291 274 268 263 255 248 253 249 250 256 265 268 270 198
185 186 191 208 244 292 317 327 331 333 334 334 335 337 340 340 340 347 344 343 344 338 337 333 331 327 321 320 320 321 279 269 269 264 249 249 248 251 255 262 266 280 198
182 186 191 205 249 296 320 328 332 336 337 335 337 339 343 343 347 347 347 347 345 344 341 340 337 329 329 326 325 340 305 268 269 266 262 261 260 245 251 256 263 256 205
182 185 189 206 246 300 320 329 334 337 338 338 339 341 346 350 350 350 351 351 349 346 340 336 329 333 340 328 329 335 347 290 268 266 263 254 259 256 259 257 264 239 203
183 185 194 208 243 294 318 329 335 337 340 340 341 345 353 354 355 356 355 355 354 349 341 336 332 336 333 335 338 333 325 306 309 265 259 247 249 266 261 255 260 231 199
186 189 196 209 240 289 319 328 335 338 341 342 346 352 353 356 359 359 3 360 357 352 342 339 336 336 333 337 341 328 320 305 283 269 256 252 244 255 258 254 250 242 199
189 192 198 211 243 288 315 326 335 338 341 345 352 354 356 358 358 4 6 5 3 352 344 342 344 338 336 337 329 325 319 317 301 265 267 248 245 251 253 252 244 245 201
191 195 202 212 237 280 310 326 338 340 342 348 355 356 359 360 359 359 3 16 16 5 356 352 354 344 341 338 339 335 334 321 276 232 266 260 251 252 247 253 246 223 201